{"data":{"norad_id":61239,"epoch":"2026-05-25T04:40:14.277216Z","epoch_age_seconds":55363,"freshness":"FRESH","line1":"1 61239U 24174B   26145.19460969  .00003006  00000+0  18780-3 0  9996","line2":"2 61239  97.4483 149.2529 0021416  13.4842 346.6955 15.10023559 91926","mean_motion":15.10023559,"eccentricity":0.0021416,"inclination_deg":97.4483,"raan_deg":149.2529,"arg_perigee_deg":13.4842,"mean_anomaly_deg":346.6955,"bstar":0.0001878,"rev_number":9192,"period_min":95.362750562225,"perigee_km":521.3204956335,"apogee_km":550.93567584875,"semimajor_km":6914.2650857411,"source":"CELESTRAK","updated_at":"2026-05-25T13:38:02.345451Z"}}